User: anonymous   Login
Location: Im Fang
(46.6019°N, 7.2397°E)
Time: 07:42:47
(UTC+00:00)
Language:

Cosmos 1603 - Orbit

View from above orbital plane
View from above orbital plane
View from above satellite
View from above satellite

Ground track
Ground track

The orbit data is extracted from the following two-line orbital elements,

1 15333U 84106A   20049.82521699  .00000304  00000-0  18426-3 0  9992
2 15333  71.0253 207.2307 0019266 165.8406 194.3261 14.14098193826327
Epoch (UTC): 18 February 2020 19:48:18
Eccentricity: 0.0019266
inclination: 71.0253°
perigee height: 831 km
apogee height: 859 km
right ascension of ascending node: 207.2307°
argument of perigee: 165.8406°
revolutions per day: 14.14098193
mean anomaly at epoch: 194.3261°
orbit number at epoch: 82632

The dashed part of the orbit path shows where the satellite is in the earth's shadow,  

DLR